Stansted, United Kingdom

1:59 AM GMT on December 12, 2017 (GMT +0000)
Stansted

Weather History for EGSS - November, 2012

Change the Weather History Date:

Monday, November 26, 2012

  Actual Average Record
Temperature  
Mean Temperature 46 °F -  
Max Temperature 48 °F 43 °F 53 °F (2011)
Min Temperature 44 °F 34 °F 24 °F (2010)
Degree Days  
Heating Degree Days 19    
Moisture  
Dew Point 44 °F    
Average Humidity 92    
Maximum Humidity 100    
Minimum Humidity 82    
Precipitation  
Precipitation 0.00 in - - ()
Sea Level Pressure  
Sea Level Pressure 29.46 in    
Wind  
Wind Speed 8 mph ()    
Max Wind Speed 15 mph    
Max Gust Speed -    
Visibility 5.4 miles    
Events Rain    
Averages and records for this station are not official NWS values.
T = Trace of Precipitation, MM = Missing Value Source: Averaged Metar Reports

Daily Weather History Graph

Daily Weather History Graph

Search for Another Location

Airport or City:

Trip Planner

Search our weather history database for the weather conditions in past years. The results will help you decide how hot, cold, wet, or windy it might be!

Date:

Astronomy

Nov. 26, 2012 Rise Set
Actual Time 7:37 AM GMT 3:55 PM GMT
Civil Twilight 6:58 AM GMT 4:34 PM GMT
Nautical Twilight 6:16 AM GMT 5:16 PM GMT
Astronomical Twilight 5:35 AM GMT 5:56 PM GMT
Moon 2:46 PM GMT (11/26) 5:23 AM GMT (11/26)
Length of Visible Light 9h 35m
Length of Day
8h 18m
Waxing Gibbous, 96% of the Moon is Illuminated
Nov 26
Waxing Gibbous
Nov 28
Full
Dec 6
Last Quarter
Dec 13
New
Dec 20
First Quarter

Hourly Weather History & Observations

Time (GMT) Temp. Windchill Dew Point Humidity Pressure Visibility Wind Dir Wind Speed Gust Speed Precip Events Conditions
12:20 AM 48.2 °F - 42.8 °F 82% 29.59 in 6.2 mi South 15.0 mph - N/A   Partly Cloudy
12:50 AM 48.2 °F - 42.8 °F 82% 29.56 in - SSE 11.5 mph - N/A   Clear
1:20 AM 48.2 °F - 42.8 °F 82% 29.56 in 6.2 mi SSE 12.7 mph - N/A   Scattered Clouds
1:50 AM 48.2 °F - 44.6 °F 87% 29.53 in 6.2 mi SSE 13.8 mph - N/A   Mostly Cloudy
2:20 AM 48.2 °F - 44.6 °F 87% 29.53 in 6.2 mi SSE 13.8 mph - N/A   Mostly Cloudy
2:50 AM 48.2 °F - 44.6 °F 87% 29.53 in 6.2 mi SSE 13.8 mph - N/A Rain Light Rain
3:20 AM 48.2 °F - 44.6 °F 87% 29.50 in 6.2 mi SSE 12.7 mph - N/A Rain Light Rain
3:50 AM 46.4 °F 41.9 °F 44.6 °F 93% 29.50 in 6.2 mi SSW 9.2 mph - N/A Rain Light Rain
4:20 AM 46.4 °F 42.9 °F 44.6 °F 93% 29.50 in 4.3 mi South 6.9 mph - N/A Rain Rain
4:50 AM 46.4 °F 42.9 °F 44.6 °F 93% 29.47 in 6.2 mi SSE 6.9 mph - N/A Rain Light Rain
5:20 AM 46.4 °F 41.5 °F 44.6 °F 93% 29.47 in - SSE 10.4 mph - N/A   Clear
5:50 AM 46.4 °F 41.9 °F 44.6 °F 93% 29.47 in 6.2 mi SSE 9.2 mph - N/A   Mostly Cloudy
6:20 AM 46.4 °F 45.2 °F 44.6 °F 93% 29.47 in 6.2 mi Variable 3.5 mph - N/A   Mostly Cloudy
6:50 AM 46.4 °F 42.4 °F 44.6 °F 93% 29.44 in 6.2 mi SE 8.1 mph - N/A   Mostly Cloudy
7:20 AM 46.4 °F 41.9 °F 44.6 °F 93% 29.44 in 6.2 mi SSE 9.2 mph - N/A   Scattered Clouds
7:50 AM 44.6 °F 39.7 °F 42.8 °F 93% 29.44 in 6.2 mi SSE 9.2 mph - N/A   Scattered Clouds
8:20 AM 44.6 °F 40.2 °F 42.8 °F 93% 29.47 in 6.2 mi SSE 8.1 mph - N/A   Scattered Clouds
8:50 AM 44.6 °F 40.2 °F 42.8 °F 93% 29.47 in 6.2 mi SSE 8.1 mph - N/A   Mostly Cloudy
9:20 AM 44.6 °F 40.2 °F 44.6 °F 100% 29.47 in 5.6 mi SSE 8.1 mph - N/A Rain Light Rain Showers
9:50 AM 46.4 °F 41.9 °F 44.6 °F 93% 29.44 in 6.2 mi SSE 9.2 mph - N/A Rain Light Rain Showers
10:20 AM 46.4 °F 42.9 °F 44.6 °F 93% 29.44 in 6.2 mi South 6.9 mph - N/A   Scattered Clouds
10:50 AM 48.2 °F - 44.6 °F 87% 29.44 in 6.2 mi SSE 5.8 mph - N/A   Scattered Clouds
11:20 AM 48.2 °F - 44.6 °F 87% 29.44 in 6.2 mi SSE 5.8 mph - N/A   Scattered Clouds
11:50 AM 48.2 °F - 44.6 °F 87% 29.44 in 6.2 mi South 4.6 mph - N/A   Scattered Clouds
12:20 PM 48.2 °F - 44.6 °F 87% 29.44 in 6.2 mi Variable 3.5 mph - N/A   Mostly Cloudy
12:50 PM 48.2 °F - 42.8 °F 82% 29.42 in 6.2 mi Variable 2.3 mph - N/A   Scattered Clouds
1:20 PM 48.2 °F - 42.8 °F 82% 29.42 in 6.2 mi Calm Calm - N/A   Scattered Clouds
1:50 PM 48.2 °F - 42.8 °F 82% 29.42 in 6.2 mi North 2.3 mph - N/A   Scattered Clouds
2:20 PM 48.2 °F - 42.8 °F 82% 29.42 in 6.2 mi North 2.3 mph - N/A Rain Light Rain Showers
2:50 PM 46.4 °F 45.2 °F 42.8 °F 87% 29.42 in 6.2 mi NW 3.5 mph - N/A Rain Rain
3:20 PM 46.4 °F - 42.8 °F 87% 29.42 in 6.2 mi NW 2.3 mph - N/A Rain Light Rain Showers
3:50 PM 44.6 °F 43.1 °F 42.8 °F 93% 29.44 in 5.6 mi NW 3.5 mph - N/A Rain Light Rain Showers
4:20 PM 44.6 °F - 42.8 °F 93% 29.44 in 5.6 mi WNW 2.3 mph - N/A Rain Light Rain
4:50 PM 44.6 °F 43.1 °F 42.8 °F 93% 29.44 in 6.2 mi NW 3.5 mph - N/A Rain Light Rain
5:20 PM 44.6 °F 41.4 °F 44.6 °F 100% 29.44 in 6.2 mi NNW 5.8 mph - N/A Rain Light Rain
5:50 PM 44.6 °F 42.2 °F 44.6 °F 100% 29.44 in 6.2 mi NNW 4.6 mph - N/A Rain Light Rain
6:20 PM 44.6 °F 42.2 °F 42.8 °F 93% 29.44 in 3.7 mi NW 4.6 mph - N/A Rain Light Rain
6:50 PM 44.6 °F 42.2 °F 44.6 °F 100% 29.44 in 2.5 mi NW 4.6 mph - N/A Rain Light Rain
7:20 PM 44.6 °F 41.4 °F 44.6 °F 100% 29.44 in 2.5 mi NW 5.8 mph - N/A Rain Light Rain
7:50 PM 44.6 °F 40.7 °F 44.6 °F 100% 29.44 in - NW 6.9 mph - N/A Rain Light Rain
8:20 PM 44.6 °F 40.2 °F 44.6 °F 100% 29.47 in 3.1 mi NW 8.1 mph - N/A Rain Light Rain
8:50 PM 44.6 °F 39.2 °F 44.6 °F 100% 29.47 in - NNW 10.4 mph - N/A Rain Light Rain
9:20 PM 44.6 °F 39.7 °F 44.6 °F 100% 29.47 in - NW 9.2 mph - N/A Rain Light Rain
9:50 PM 44.6 °F 40.2 °F 44.6 °F 100% 29.47 in 1.7 mi NNW 8.1 mph - N/A Rain Light Rain
10:20 PM 44.6 °F 40.2 °F 44.6 °F 100% 29.47 in 1.2 mi NW 8.1 mph - N/A Rain Light Rain
10:50 PM 44.6 °F 39.2 °F 44.6 °F 100% 29.47 in 1.4 mi NW 10.4 mph - N/A Rain Light Rain
11:20 PM 44.6 °F 40.2 °F 44.6 °F 100% 29.47 in 3.1 mi NW 8.1 mph - N/A   Mostly Cloudy
11:50 PM 44.6 °F 41.4 °F 42.8 °F 93% 29.47 in - NNW 5.8 mph - N/A   Mostly Cloudy